Zurück zum Katalog

STARLINK-32646

AktivKommunikationVLEO
NORAD 62307·PAYLOAD·🇺🇸 United States

Gestartet Dec 13, 2024 von Vandenberg Space Force Base

Loading…

Nächste Überflüge (nächste 24 Stunden)

TLE

AktuellSource: CelesTrak SupGP

Epoche: Sep 14, 2026, 21:24 UTC

1 62307C 24239G   26257.89215278  .00020542  00000+0  60735-3 0  2575
2 62307  53.1592  20.0687 0001153  75.1134 272.4709 15.34357467    16

Verfolge STARLINK-32646 in Echtzeit mit AllMySat

Download on the App Store